Back to catalog

SCOUT B DEB

LostUNKNOWN
NORAD 28797·DEBRIS·🇺🇸 United States

Launched Aug 10, 1965 from Wallops Flight Facility

Loading…

Next Passes (next 24 hours)

TLE

StaleSource: Space-Track

Epoch: Jan 3, 2025, 12:14 UTC

1 28797U 65063G   25003.51037046  .00003408  00000-0  22033-1 0  9995
2 28797  69.1986  93.7784 0690288 326.0134  46.1766 11.97774305130181

Track SCOUT B DEB in real time with AllMySat

Download on the App Store